Погода в Беное

Россия / Чеченская Республика     43°03′50″N   46°00′59″E
темп.,
°C
ветер,
м/с
пор.,
м/с
влажн.,
%
обл.,
%
осадки,
мм/ч
давл.,
гПа
погр.,
м
21 июня, пн
пн2100:00+20ю32440 0.0 101227
03:00+19ю32430 0.0 101327
06:00+21ююв22540 0.0 101234
09:00+28ссв22400 0.0 1011682
12:00+31с33374 0.0 10101129
15:00+32с32340 0.0 10081281
18:00+28сз12540 0.0 100850
21:00+23ю33560 0.0 101030
22 июня, вт
вт2200:00+21ю22430 0.0 101125
03:00+20ююв22390 0.0 101119
06:00+21ююв21530 0.0 101236
09:00+27с22420 0.0 1011652
12:00+31с32352 0.0 10091081
15:00+32ссз32340 0.0 10081210
18:00+28зсз22530 0.0 100876
21:00+23ю32574 0.0 101027
23 июня, ср
ср2300:00+21ю32314 0.0 101133
03:00+20ю32300 0.0 101225
06:00+21ююв22490 0.0 101338
09:00+27ссв23423 0.0 1012938
12:00+30с33370 0.0 10111437
15:00+31ссз32340 0.0 10111625
18:00+27сз23510 0.0 1011160
21:00+21ю32630 0.0 101436
24 июня, чт
чт2400:00+21ю22630 0.0 101327
03:00+20ю22630 0.0 101317
06:00+21ю11600 0.0 101339
09:00+27с22450 0.0 1012787
12:00+30с32380 0.0 10121433
15:00+31ссз32360 0.0 10111812
18:00+27сз24520 0.0 1012274
21:00+21ю22720 0.0 101423
25 июня, пт
пт2500:00+20ю22710 0.0 101421
03:00+19ю22710 0.0 101322
06:00+21ююз11655 0.0 101354
09:00+26с214928 0.0 1012923
12:00+30с32400 0.0 10111604
15:00+31с32360 0.0 10102095
18:00+28сз355216 0.0 1011426
21:00+21ю22780 0.0 101427